Tracking 33744 objects as of 12-Apr-2026
HD Live streaming from Space Station
objects crossing your sky now

STARLINK-34848

Track STARLINK-34848 now!
10-day predictions
STARLINK-34848 is classified as:


NORAD ID: 65402
Int'l Code: 2025-191Z
Perigee: 555.8 km
Apogee: 557.4 km
Inclination: 97.6 °
Period: 95.6 minutes
Semi major axis: 6927 km
RCS: Unknown
Launch date: August 30, 2025
Source: United States (US)
Launch site: AIR FORCE WESTERN TEST RANGE (AFWTR)
Your satellite tracking list
Your tracking list is empty




NASA's NSSDC Master Catalog

Two Line Element Set (TLE):
1 65402U 25191Z   26102.12927741  .00008094  00000-0  56426-3 0  9996
2 65402  97.6056 334.5228 0001155 106.7170 253.4183 15.05667224 35308
Source of the keplerian elements: AFSPC